Regional Weather Roundup
Issued by NWS

Home | Current Version | Previous Version | Graphics & Text | Print | Product List | Glossary On
Versions: 1 2 3 4 5 6 7 8 9 10 11 12 13 14 15 16 17 18 19 20 21 22 23 24 25 26 27 28 29 30 31 32 33 34 35 36 37 38 39 40 41 42 43 44 45 46 47 48 49 50
000
ASUS43 KMKX 282010
RWRWI

WISCONSIN REGIONAL WEATHER ROUNDUP
NATIONAL WEATHER SERVICE MILWAUKEE/SULLIVAN WI
300 PM CDT THU MAY 28 2015

NOTE: "FAIR" INDICATES FEW OR NO CLOUDS BELOW 12,000 FEET WITH NO
SIGNIFICANT WEATHER AND/OR OBSTRUCTIONS TO VISIBILITY.

WIZ001-002-006>008-014>016-023>028-282100-
NORTHWEST WISCONSIN

CITY           SKY/WX    TMP DP  RH WIND       PRES   REMARKS
SUPERIOR ARPT  CLOUDY    45  42  91 E12G18    30.07S
ASHLAND        MOSUNNY   64  53  67 N8        30.03F
HAYWARD        MOSUNNY   84  48  28 S22G30    30.02S HX  82
SIREN          SUNNY     84  49  30 S13G23    30.01S HX  82
CUMBERLAND     SUNNY     79  52  38 SW17G24   30.03F
RICE LAKE      MOSUNNY   84  48  28 S13       30.05F HX  82
CHETEK         SUNNY     82  54  38 S16G23    30.04F HX  81
LADYSMITH      MOSUNNY   80  54  39 S13G18    30.07F HX  80
EAU CLAIRE     NOT AVBL
MENOMONIE      MOSUNNY   83  53  36 S13       30.04F HX  81
NEW RICHMOND   SUNNY     81  53  38 S18G25    30.03F HX  80
OSCEOLA        MOSUNNY   83  51  32 S15G25    30.04S HX  82
$$

WIZ003>005-009-010-017-018-282100-
NORTH CENTRAL WISCONSIN

CITY           SKY/WX    TMP DP  RH WIND       PRES   REMARKS
MANITOWISH WTR PTSUNNY   80  54  40 SW12G17   30.05F HX  80
ARBOR VITAE    MOSUNNY   80  54  40 SW12G17   30.07F HX  80
WOODRUFF       MOSUNNY   80  54  40 SW12G17   30.07F HX  80
RHINELANDER    MOSUNNY   82  55  39 SW12      30.09F HX  81
EAGLE RIVER    MOSUNNY   82  47  29 SW16G22   30.06F HX  81
LAND O LAKES   PTSUNNY   83  48  29 SW13G20   30.07F HX  81
PHILLIPS       PTSUNNY   81  56  42 SW13      30.05F HX  81
TOMAHAWK       MOSUNNY   80  54  39 SW7       30.09S HX  80
MEDFORD        MOSUNNY   79  58  48 S16       30.09S HX  80
MERRILL        MOSUNNY   81  60  48 SW9       30.09F HX  82
$$

WIZ029-030-035-036-043>047-282100-
CENTRAL WISCONSIN

CITY           SKY/WX    TMP DP  RH WIND       PRES   REMARKS
WAUSAU         MOSUNNY   81  56  42 S10       30.07F HX  81
MOSINEE        MOSUNNY   81  57  44 S14       30.10F HX  81
MARSHFIELD     MOSUNNY   83  56  39 S13G22    30.08F HX  82
STEVENS POINT  MOSUNNY   81  55  40 S9        30.10S HX  81
WAUPACA        MOSUNNY   85  55  35 S12       30.10F HX  84
WAUTOMA        NOT AVBL
WISC RAPIDS    MOSUNNY   84  50  30 SW15      30.10F HX  82
CAMP DOUGLAS   NOT AVBL
$$

WIZ011>013-019>022-031-037>040-048>050-282100-
NORTHEAST WISCONSIN

CITY           SKY/WX    TMP DP  RH WIND       PRES   REMARKS
ANTIGO         PTSUNNY   78  61  56 S7        30.11F
SHAWANO        MOSUNNY   83  62  48 S6        30.10F HX  83
OCONTO         SUNNY     78  64  61 SE7       30.10F HX  80
STURGEON BAY   SUNNY     72  63  73 SE13      30.15F
GREEN BAY      MOSUNNY   83  61  47 S15       30.11F HX  83
MANITOWOC      NOT AVBL
APPLETON       PTSUNNY   81  57  44 S13G20    30.12F HX  81
CLINTONVILLE   MOSUNNY   81  57  44 S10       30.09F HX  81
OSHKOSH        MOSUNNY   81  60  48 S10       30.12S HX  82
$$

WIZ032>034-041-042-053>061-282100-
SOUTHWEST WISCONSIN

CITY           SKY/WX    TMP DP  RH WIND       PRES   REMARKS
LA CROSSE      PTSUNNY   82  54  37 S15       30.07F HX  81
SPARTA         MOSUNNY   82  53  37 S13G20    30.10S HX  81
VIROQUA        PTSUNNY   80  56  44 S15       30.12F HX  80
BOSCOBEL       MOSUNNY   84  55  36 S9G17     30.11F HX  83
PRAIRIE DU CHI MOSUNNY   81  50  33 SE9G18    30.10F HX  80
PLATTEVILLE    MOSUNNY   80  54  41 S15       30.14S HX  80
$$

WIZ056-057-062-063-064-067-068-282100-
SOUTH CENTRAL WISCONSIN

CITY           SKY/WX    TMP DP  RH WIND       PRES   REMARKS
REEDSBURG      MOSUNNY   79  61  52 S12G17    30.11F HX  80
BARABOO/DELLS  MOSUNNY   78  57  48 S10G17    30.12F
LONE ROCK      NOT AVBL
MINERAL POINT  PTSUNNY   81  52  36 S14G21    30.14F HX  80
MADISON        PTSUNNY   81  54  39 S14       30.13S HX  81
MIDDLETON      MOSUNNY   82  49  31 S12G17    30.14S HX  80
WATERTOWN      MOSUNNY  N/A N/A N/A S10G18    30.14S
MONROE         MOSUNNY   79  54  41 S17       30.15S
JANESVILLE     MOSUNNY   82  52  34 S9        30.13F HX  81
$$

WIZ051-052-058>065-066-070>072-282100-
SOUTHEAST WISCONSIN

CITY           SKY/WX    TMP DP  RH WIND       PRES   REMARKS
MILWAUKEE      PTSUNNY   76  57  51 SE16      30.16F
WAUKESHA       MOSUNNY   79  54  41 SE12      30.16F
MILWAUKEE/TIMM MOSUNNY   81  52  36 SE15G22   30.16S HX  80
RACINE         MOSUNNY   73  54  51 S15       30.19F
BURLINGTON     MOSUNNY   79  52  39 SE7       30.16S
KENOSHA        MOSUNNY   77  57  50 SE16      30.18S
FOND DU LAC    MOSUNNY   80  60  50 S14       30.12F HX  81
SHEBOYGAN      MOSUNNY   77  61  57 S13       30.14S
WEST BEND      MOSUNNY   79  57  47 SE13      30.14F HX  80
JUNEAU         MOSUNNY   79  58  48 S14       30.15F HX  80
$$

LSZ147-162-282100-
LAKE SUPERIOR

STATION/POSITION TIME  TEMP    WIND        PRES    WAVE
                       AIR SEA DIR/SP/G            HT/PER
                 (UTC) (F)     (DEG/KT/KT) (MB)    (FT/S)
W MID LAKE BUOY  1850   38 37   40/ 17/ 19   N/A     3/ 4
DEVILS ISLAND    1900   40      40/ 13/ 14   N/A
SAXON HARBOR     1900   45      CALM  /  4   N/A
$$

LMZ867-665-643>646-282100-
LAKE MICHIGAN

STATION/POSITION TIME  TEMP    WIND        PRES    WAVE
                       AIR SEA DIR/SP/G            HT/PER
                 (UTC) (F)     (DEG/KT/KT) (MB)    (FT/S)
CHAMBERS ISLAND  1900   58     330/  3/  4   N/A
N MID LAKE BUOY  1850   41 37  140/  6/  8   N/A     1
NORTHPORT PIER   1900   51     140/ 10/ 12   N/A
SISTER BAY       1948   77     190/ 14/ 18   N/A
ALGOMA LAKESHORE 1838          170/  2/  5   N/A
KEWAUNEE LAKESHO 1900   52     160/  9/ 10   N/A
SHEBOYGAN LAKESH 1900   55     170/ 17/ 18   N/A
PORT WASHINGTON  1940   61     190/  6/ 10   N/A
ATWATER BUOY     1900   53     200/  6/  8   N/A
MILWAUKEE LAKESH 1900   58     150/ 17/ 18   N/A
S MID LAKE BUOY  1850   49 39  150/  8/  8   N/A     0
KENOSHA   LAKESH 1900   60     180/ 10/ 12   N/A
$$

TC  - TEMPERATURE IN CELSIUS
VSB - VISIBILITY IN STATUTE MILES
WCI - WIND CHILL INDEX
HX  - HEAT INDEX




USA.gov is the U.S. government's official web portal to all federal, state and local government web resources and services.